Вернуться в каталог

STARLINK-3166

АктивенСвязьVLEO
NORAD 51462·PAYLOAD·🇺🇸 United States

Запущен Feb 3, 2022 с Cape Canaveral Space Force Station

Loading…

Ближайшие Пролёты (ближайшие 24 часа)

TLE

СвежийSource: CelesTrak SupGP

Эпоха: Sep 14, 2026, 21:27 UTC

1 51462C 22010G   26257.89423611 -.00040582  00000+0 -13052-2 0  2579
2 51462  53.1572 134.9943 0001316  86.7894  38.6497 15.31718085    16

Отслеживайте STARLINK-3166 в реальном времени с AllMySat

Download on the App Store